This demonstration page uses our WeatherBlox Daily Observations layout. Learn more.

Left ArrowRight Arrow

44.8408, -93.29828

Hourly Observations for July 11, 2021

Temp ( °F °C ) Dew Point ( °F °C ) Humidity (%) Winds ( mph kmh ) Pressure ( in mb ) Visibility ( mi km ) Precip ( " mm )
1:53 am 01:53 Clear 66 18.9 58 14.4 75 75 Calm 30.00 1016 10 16 0.00 0.00
2:53 am 02:53 Clear 65 18.3 60 15.6 84 84 N 3 6 30.01 1016 10 16 0.00 0.00
3:53 am 03:53 Clear 64 17.8 57 13.9 78 78 N 5 7 30.00 1016 10 16 0.00 0.00
4:53 am 04:53 Clear 63 17.2 57 13.9 81 81 N 3 6 30.01 1016 10 16 0.00 0.00
5:53 am 05:53 Sunny 63 17.2 56 13.3 78 78 N 3 6 30.02 1017 9 14 0.00 0.00
6:53 am 06:53 Sunny 64 17.8 55 12.8 73 73 NNE 5 7 30.04 1017 10 16 0.00 0.00
7:53 am 07:53 Sunny 65 18.3 57 13.9 76 76 VRB 3 6 30.05 1018 9 14 0.00 0.00
8:53 am 08:53 Sunny 69 20.6 57 13.9 66 66 Calm 30.06 1018 9 14 0.00 0.00
9:53 am 09:53 Mostly Sunny 72 22.2 58 14.4 61 61 Calm 30.06 1018 10 16 0.00 0.00
10:53 am 10:53 Mostly Sunny 76 24.4 54 12.2 47 47 Calm 30.07 1018 10 16 0.00 0.00
11:53 am 11:53 Mostly Sunny 79 26.1 55 12.8 44 44 E 3 6 30.06 1018 10 16 0.00 0.00
12:53 pm 12:53 Mostly Sunny 82 27.8 53 11.7 37 37 ESE 8 13 30.05 1018 8 13 0.00 0.00
1:53 pm 13:53 Mostly Sunny 84 28.9 53 11.7 34 34 ESE 12 19 30.03 1017 7 11 0.00 0.00
2:53 pm 14:53 Hazy 84 28.9 53 11.7 34 34 ENE 10 17 30.02 1017 6 10 0.00 0.00
3:53 pm 15:53 Mostly Sunny 85 29.4 53 11.7 33 33 E 10 17 30.02 1017 7 11 0.00 0.00
4:53 pm 16:53 Mostly Sunny 85 29.4 54 12.2 35 35 E 13 20 30.01 1016 7 11 0.00 0.00
5:53 pm 17:53 Mostly Sunny 84 28.9 54 12.2 36 36 ESE 9 15 30.01 1016 7 11 0.00 0.00
6:53 pm 18:53 Mostly Sunny 83 28.3 53 11.7 36 36 E 10 17 30.00 1016 7 11 0.00 0.00
7:53 pm 19:53 Mostly Sunny 80 26.7 53 11.7 39 39 ESE 10 17 30.01 1016 7 11 0.00 0.00
8:53 pm 20:53 Hazy 77 25 54 12.2 45 45 SE 8 13 30.02 1017 6 10 0.00 0.00
9:53 pm 21:53 Hazy 77 25 54 12.2 45 45 SE 7 11 30.04 1017 6 10 0.00 0.00
10:53 pm 22:53 Hazy 73 22.8 56 13.3 55 55 SE 5 7 30.05 1018 6 10 0.00 0.00
11:53 pm 23:53 Clear 72 22.2 56 13.3 57 57 SE 3 6 30.05 1018 7 11 0.00 0.00

Powered by AerisWeather